CEB700 RPVO-RPUV

Flight info

Callsign CEB700
Flight time N/A
Altitude 16000
Route DAKOS DCT MALAG
Aircraft A20N/M-SDE2E3FGHIRWXY/LB1

Departure

Time N/A
Airport Ormoc Airport (RPVO)

Arrival

Time 2026-04-29 13:52
Airport Virac Airport (RPUV)
Time Latitude Longitude Altitude Speed Heading
2026-04-29 13:48 13.51115 124.12577 2086 ft 140 kts 353°
2026-04-29 13:49 13.52078 124.12465 1915 ft 140 kts 353°
2026-04-29 13:49 13.53027 124.12470 1714 ft 140 kts 21°
2026-04-29 13:49 13.53726 124.13126 1582 ft 140 kts 58°
2026-04-29 13:49 13.54191 124.13991 1418 ft 139 kts 62°
2026-04-29 13:50 13.54636 124.14859 1232 ft 139 kts 62°
2026-04-29 13:50 13.55091 124.15727 1138 ft 138 kts 61°
2026-04-29 13:50 13.55533 124.16554 1091 ft 139 kts 61°
2026-04-29 13:50 13.55990 124.17397 847 ft 138 kts 60°
2026-04-29 13:51 13.56446 124.18218 557 ft 138 kts 60°
2026-04-29 13:51 13.56894 124.19027 320 ft 136 kts 60°
2026-04-29 13:51 13.57345 124.19856 175 ft 136 kts 60°
2026-04-29 13:51 13.57721 124.20541 161 ft 61 kts 58°
2026-04-29 13:52 13.57788 124.20657 161 ft 0 kts 56°
2026-04-29 13:52 13.57799 124.20673 161 ft 10 kts 57°
2026-04-29 13:52 13.57835 124.20737 161 ft 11 kts 61°
2026-04-29 13:52 13.57890 124.20837 161 ft 26 kts 60°
2026-04-29 13:53 13.57973 124.20985 161 ft 23 kts 66°
2026-04-29 13:53 13.58004 124.21058 161 ft 5 kts 95°
2026-04-29 13:53 13.57986 124.21093 161 ft 5 kts 121°
2026-04-29 13:53 13.57969 124.21126 161 ft 4 kts 102°
2026-04-29 13:54 13.57979 124.21156 161 ft 4 kts 60°
2026-04-29 13:54 13.57989 124.21174 161 ft 2 kts 60°
2026-04-29 13:54 13.57992 124.21189 161 ft 2 kts 92°
2026-04-29 13:54 13.57989 124.21193 161 ft 0 kts 152°
2026-04-29 13:55 13.57991 124.21192 161 ft 0 kts 127°
2026-04-29 13:55 13.57991 124.21187 161 ft 1 kts 54°
2026-04-29 13:56 13.57992 124.21188 161 ft 0 kts 59°
2026-04-29 13:56 13.57992 124.21189 161 ft 0 kts 65°
2026-04-29 13:59 13.57991 124.21188 161 ft 1 kts 66°
2026-04-29 13:59 13.57991 124.21185 161 ft 1 kts 65°
2026-04-29 14:00 13.58000 124.21207 161 ft 3 kts 78°
2026-04-29 14:00 13.57993 124.21227 161 ft 3 kts 135°
2026-04-29 14:00 13.57975 124.21232 161 ft 1 kts 181°
2026-04-29 14:00 13.57973 124.21232 161 ft 0 kts 181°